Location: Unspecified
(0.0000°N, 0.0000°E)
Time: 01:52:30
(UTC+00:00)

N. Korean satellite - Pass Details

Date: 17 March 2018
Orbit: 459 x 511 km, 97.2° (Epoch: 17 June)

Event Time Altitude Azimuth Distance (km) Brightness Sun altitude
Rises 19:11:36 0° 208° (SSW) 2,503 10.6 -15.7°
Reaches altitude 10° 05:29:04 10° 71° (ENE) 1,692 10.6 -9.8°
Maximum altitude 05:30:51 13° 101° (E) 1,495 10.5 -9.4°
Drops below altitude 10° 05:32:38 10° 130° (SE) 1,682 10.1 -9.0°
Sets 05:35:36 0° 158° (SSE) 2,553 10.6 -8.2°
